This demonstration page uses our WeatherBlox Daily Observations layout. Learn more.

Left ArrowRight Arrow

Hourly Observations for November 7, 2016

Temp ( °F °C ) Dew Point ( °F °C ) Humidity (%) Winds ( mph kmh ) Pressure ( in mb ) Visibility ( mi km ) Precip ( " mm )
12:51 am 00:51 Clear 52 11.1 49 9.4 89 89 N N/A 30.02 1017 10 16.0934 N/A
1:51 am 01:51 Clear 51 10.6 48 8.9 89 89 N N/A 30.02 1017 10 16.0934 N/A
2:51 am 02:51 Clear 50 10 48 8.9 93 93 W 5 7 30.04 1017 10 16.0934 N/A
3:51 am 03:51 Clear 49 9.4 46 7.8 90 90 N N/A 30.05 1018 10 16.0934 N/A
4:51 am 04:51 Clear 50 10 47 8.3 89 89 N N/A 30.07 1018 10 16.0934 N/A
5:51 am 05:51 Clear 47 8.3 45 7.2 93 93 SSE 3 6 30.09 1019 10 16.0934 N/A
6:51 am 06:51 Sunny 47 8.3 45 7.2 93 93 SSE 6 9 30.12 1020 10 16.0934 N/A
7:51 am 07:51 Sunny 52 11.1 48 8.9 86 86 N N/A 30.14 1021 10 16.0934 N/A
8:51 am 08:51 Sunny 61 16.1 48 8.9 63 63 N N/A 30.14 1021 10 16.0934 N/A
9:51 am 09:51 Sunny 66 18.9 49 9.4 54 54 N N/A 30.14 1021 10 16.0934 N/A
10:51 am 10:51 Sunny 69 20.6 44 6.7 41 41 VRB 7 11 30.12 1020 10 16.0934 N/A
11:51 am 11:51 Sunny 72 22.2 47 8.3 41 41 N N/A 30.09 1019 10 16.0934 N/A
12:51 pm 12:51 Sunny 73 22.8 46 7.8 38 38 N N/A 30.05 1018 10 16.0934 N/A
1:51 pm 13:51 Sunny 76 24.4 43 6.1 31 31 N N/A 30.02 1017 10 16.0934 N/A
2:51 pm 14:51 Sunny 77 25 44 6.7 31 31 VRB 5 7 30.01 1016 10 16.0934 N/A
3:51 pm 15:51 Sunny 77 25 42 5.6 29 29 W 6 9 30.01 1016 10 16.0934 N/A
4:51 pm 16:51 Sunny 75 23.9 42 5.6 31 31 W 3 6 30.02 1017 10 16.0934 N/A
5:51 pm 17:51 Clear 67 19.4 48 8.9 51 51 NNW 5 7 30.05 1018 10 16.0934 N/A
6:51 pm 18:51 Clear 62 16.7 49 9.4 62 62 N 10 17 30.07 1018 10 16.0934 N/A
7:51 pm 19:51 Clear 61 16.1 49 9.4 65 65 ESE 5 7 30.09 1019 10 16.0934 N/A
8:51 pm 20:51 Clear 59 15 48 8.9 67 67 SE 5 7 30.09 1019 10 16.0934 N/A
9:51 pm 21:51 Clear 58 14.4 48 8.9 70 70 NE 6 9 30.1 1019 10 16.0934 N/A
10:51 pm 22:51 Clear 59 15 47 8.3 64 64 SSE 8 13 30.11 1020 10 16.0934 N/A
11:51 pm 23:51 Clear 60 15.6 45 7.2 58 58 SE 8 13 30.11 1020 10 16.0934 N/A

Powered by AerisWeather